Pierre, SD

9:13 PM CST on December 16, 2017 (GMT -0600)
Pierre Regional

Weather History for KPIR - May, 2013

Change the Weather History Date:

Sunday, May 26, 2013

  Actual Average Record
Temperature  
Mean Temperature 63 °F 61 °F  
Max Temperature 70 °F 73 °F 96 °F (2006)
Min Temperature 55 °F 49 °F 29 °F (1992)
Degree Days  
Heating Degree Days 2 5  
Month to date heating degree days 266 224  
Since 1 July heating degree days 7609 7214  
Cooling Degree Days 0 1  
Month to date cooling degree days 20 24  
Year to date cooling degree days 20 28  
Growing Degree Days 12 (Base 50)    
Moisture  
Dew Point 56 °F    
Average Humidity 83    
Maximum Humidity 100    
Minimum Humidity 66    
Precipitation  
Precipitation 0.16 in 0.11 in 1.81 in (1955)
Month to date precipitation 2.45 2.57  
Year to date precipitation 7.14 6.62  
Sea Level Pressure  
Sea Level Pressure 29.90 in    
Wind  
Wind Speed 15 mph (East)    
Max Wind Speed 36 mph    
Max Gust Speed 43 mph    
Visibility 9 miles    
Events Rain , Thunderstorm    
T = Trace of Precipitation, MM = Missing Value Source: NWS Daily Summary

Daily Weather History Graph

Daily Weather History Graph

Search for Another Location

Airport or City:

Trip Planner

Search our weather history database for the weather conditions in past years. The results will help you decide how hot, cold, wet, or windy it might be!

Date:

Astronomy

May. 26, 2013 Rise Set
Actual Time 6:03 AM CDT 9:13 PM CDT
Civil Twilight 5:28 AM CDT 9:48 PM CDT
Nautical Twilight 4:43 AM CDT 10:34 PM CDT
Astronomical Twilight 3:48 AM CDT 11:29 PM CDT
Moon 11:01 PM CDT (5/26) 7:35 AM CDT (5/26)
Length of Visible Light 16h 20m
Length of Day
15h 09m
Waning Gibbous, 96% of the Moon is Illuminated
May 26
Waning Gibbous
May 31
Last Quarter
Jun 8
New
Jun 16
First Quarter
Jun 23
Full

Hourly Weather History & Observations

Time (CDT) Temp. Dew Point Humidity Pressure Visibility Wind Dir Wind Speed Gust Speed Precip Events Conditions
12:11 AM 62.6 °F 57.2 °F 82% 29.89 in 9.0 mi ENE 21.9 mph 29.9 mph 0.00 in Rain , Thunderstorm Light Rain
12:19 AM 62.6 °F 57.2 °F 82% 29.87 in 10.0 mi East 19.6 mph 27.6 mph 0.00 in Rain , Thunderstorm Light Rain
12:37 AM 62.6 °F 57.2 °F 82% 29.88 in 10.0 mi East 19.6 mph 26.5 mph 0.00 in   Overcast
12:53 AM 60.1 °F 57.9 °F 93% 29.86 in 10.0 mi East 20.7 mph 27.6 mph 0.00 in   Overcast
1:53 AM 60.1 °F 55.9 °F 86% 29.85 in 10.0 mi East 17.3 mph 28.8 mph N/A   Overcast
2:24 AM 57.2 °F 55.4 °F 94% 29.86 in 10.0 mi East 18.4 mph 27.6 mph N/A   Overcast
2:53 AM 57.0 °F 54.0 °F 89% 29.84 in 10.0 mi East 21.9 mph - N/A   Overcast
3:17 AM 55.4 °F 53.6 °F 94% 29.84 in 10.0 mi ESE 20.7 mph 26.5 mph 0.00 in Rain , Thunderstorm Light Rain
3:32 AM 55.4 °F 53.6 °F 94% 29.85 in 10.0 mi ESE 18.4 mph 25.3 mph 0.00 in   Overcast
3:53 AM 55.9 °F 53.1 °F 90% 29.83 in 10.0 mi ESE 20.7 mph 26.5 mph 0.01 in   Overcast
4:19 AM 57.2 °F 53.6 °F 88% 30.00 in 10.0 mi North 19.6 mph 35.7 mph N/A   Overcast
4:31 AM 55.4 °F 53.6 °F 94% 29.99 in 4.0 mi NNW 4.6 mph - 0.01 in Rain , Thunderstorm Thunderstorms and Rain
4:38 AM 55.4 °F 53.6 °F 94% 29.98 in 4.0 mi NNE 21.9 mph 27.6 mph 0.09 in Rain , Thunderstorm Heavy Thunderstorms and Rain
4:46 AM 55.4 °F 53.6 °F 94% 29.97 in 3.0 mi East 18.4 mph 31.1 mph 0.13 in Rain , Thunderstorm Rain
4:53 AM 55.0 °F 53.1 °F 93% 29.93 in 8.0 mi East 17.3 mph 26.5 mph 0.14 in Rain , Thunderstorm Light Thunderstorms and Rain
5:00 AM 55.4 °F 53.6 °F 94% 29.94 in 10.0 mi East 19.6 mph 27.6 mph 0.00 in Rain , Thunderstorm Light Thunderstorms and Rain
5:20 AM 55.4 °F 53.6 °F 94% 29.91 in 10.0 mi ESE 20.7 mph 27.6 mph 0.00 in   Overcast
5:53 AM 55.0 °F 54.0 °F 96% 29.86 in 10.0 mi SE 19.6 mph 26.5 mph 0.00 in   Mostly Cloudy
6:53 AM 57.0 °F 55.0 °F 93% 29.86 in 10.0 mi SE 19.6 mph 23.0 mph 0.01 in   Mostly Cloudy
7:36 AM 59.0 °F 55.4 °F 88% 29.88 in 10.0 mi SE 16.1 mph - N/A   Mostly Cloudy
7:53 AM 60.1 °F 57.0 °F 90% 29.92 in 10.0 mi ENE 8.1 mph 23.0 mph N/A   Overcast
8:03 AM 55.4 °F 53.6 °F 94% 29.98 in 10.0 mi NNW 32.2 mph 42.6 mph N/A   Overcast
8:39 AM 57.2 °F 55.4 °F 94% 29.99 in 10.0 mi NE 10.4 mph - N/A   Overcast
8:53 AM 57.9 °F 55.0 °F 90% 29.96 in 10.0 mi ENE 12.7 mph - N/A   Overcast
9:23 AM 57.2 °F 53.6 °F 88% 29.96 in 10.0 mi East 11.5 mph - N/A   Overcast
9:53 AM 60.1 °F 55.0 °F 83% 29.94 in 10.0 mi East 11.5 mph - N/A   Overcast
10:53 AM 62.1 °F 55.9 °F 80% 29.92 in 10.0 mi East 16.1 mph - N/A   Overcast
11:53 AM 66.9 °F 57.0 °F 70% 29.88 in 10.0 mi SE 20.7 mph 29.9 mph N/A   Mostly Cloudy
12:53 PM 69.1 °F 57.9 °F 68% 29.86 in 10.0 mi SE 23.0 mph 28.8 mph N/A   Partly Cloudy
1:40 PM 69.8 °F 60.8 °F 73% 29.90 in 10.0 mi SSE 18.4 mph 23.0 mph N/A   Overcast
1:53 PM 66.9 °F 59.0 °F 76% 29.87 in 10.0 mi SSE 18.4 mph 24.2 mph N/A   Overcast
2:53 PM 64.9 °F 59.0 °F 81% 29.88 in 10.0 mi SE 15.0 mph - N/A   Overcast
3:45 PM 69.8 °F 60.8 °F 73% 29.88 in 10.0 mi East 12.7 mph - N/A   Scattered Clouds
3:53 PM 69.1 °F 61.0 °F 75% 29.87 in 10.0 mi ESE 11.5 mph - N/A   Scattered Clouds
4:17 PM 66.2 °F 60.8 °F 83% 29.91 in 10.0 mi ESE 10.4 mph - N/A   Mostly Cloudy
4:53 PM 64.0 °F 59.0 °F 84% 29.90 in 10.0 mi SE 9.2 mph - N/A   Overcast
5:35 PM 64.4 °F 60.8 °F 88% 29.88 in 10.0 mi East 11.5 mph - N/A   Overcast
5:53 PM 66.0 °F 61.0 °F 84% 29.86 in 10.0 mi East 12.7 mph - N/A   Mostly Cloudy
6:04 PM 64.4 °F 60.8 °F 88% 29.89 in 10.0 mi ESE 12.7 mph - N/A   Mostly Cloudy
6:53 PM 64.0 °F 60.1 °F 87% 29.86 in 10.0 mi ESE 12.7 mph - N/A   Overcast
7:34 PM 62.6 °F 59.0 °F 88% 29.85 in 10.0 mi East 25.3 mph 31.1 mph N/A   Overcast
7:48 PM 60.8 °F 57.2 °F 88% 29.87 in 10.0 mi East 19.6 mph 31.1 mph N/A   Overcast
7:53 PM 61.0 °F 57.9 °F 90% 29.86 in 10.0 mi ENE 18.4 mph - N/A   Overcast
8:53 PM 57.9 °F 57.0 °F 97% 29.88 in 5.0 mi East 17.3 mph 26.5 mph N/A   Overcast
9:53 PM 57.0 °F 55.9 °F 96% 29.89 in 6.0 mi East 13.8 mph - N/A   Overcast
10:53 PM 57.0 °F 55.0 °F 93% 29.88 in 5.0 mi ESE 13.8 mph - N/A   Overcast
11:06 PM 55.4 °F 55.4 °F 100% 29.90 in 2.5 mi ESE 11.5 mph - N/A   Overcast
11:13 PM 55.4 °F 55.4 °F 100% 29.90 in 3.0 mi East 10.4 mph - N/A   Overcast
11:35 PM 55.4 °F 55.4 °F 100% 29.90 in 2.5 mi East 9.2 mph - N/A   Overcast
11:53 PM 55.9 °F 55.0 °F 97% 29.89 in 4.0 mi East 8.1 mph - N/A   Overcast